Weather in Raznochinovka

Russia / Astrakhan Oblast     46°38′10″N   47°54′25″E
temp.,
°C
wind,
m/s
gust,
m/s
humid.,
%
clouds,
%
prec.,
mm/h
press.,
hPa
HPBL,
m
5 august, thu
thu501:00+30n61137100 0.0 1011296
04:00+28n51143100 0.0 1011286
07:00+28nne61049100 0.0 1012454
10:00+33nne673436 0.0 10121032
13:00+36n652610 0.0 10121830
16:00+37n642238 0.0 10122468
19:00+33n5726100 0.4 1012446
22:00+28n51028100 0.4 1012185
6 august, fri
fri601:00+26nne51127100 0.0 1012251
04:00+25ne493391 0.0 1012164
07:00+26ne410334 0.0 1013346
10:00+32ne65220 0.0 10131364
13:00+35ne54170 0.0 10121906
16:00+36ne53150 0.0 10102244
19:00+35ene45160 0.0 10101062
22:00+28ene45230 0.0 101056
7 august, sat
sat701:00+27ene512240 0.0 1010232
04:00+25ene511240 0.0 1010194
07:00+27ene612220 0.0 1011391
10:00+35e89150 0.0 10101251
13:00+39ese77145 0.0 10092338
16:00+39ese761458 0.0 10092431
19:00+36ese78180 0.0 10081234
22:00+29e512240 0.0 1009195
8 august, sun
sun801:00+27e51428100 0.0 1009252
04:00+27e51528100 0.0 1009289
07:00+28e61435100 0.0 1009345
10:00+39se9121693 0.0 10091397
13:00+42se1113125 0.0 10082855
16:00+41se10111546 0.0 10081980
19:00+37se810205 0.0 1008885
22:00+27se510475 0.0 1009152
9 august, mon
mon901:00+26s344756 0.0 100953
04:00+26ssw334878 0.0 100920
07:00+29wsw234793 0.0 100987
10:00+34n3431100 0.0 1009458
13:00+39n432020 0.0 10092069
16:00+41nnw34185 0.0 10082993
19:00+38nnw34231 0.1 1008163
22:00+29se45479 0.4 100952